Powrót do katalogu

CAS500-2

AktywnyNaukaSSO
NORAD 69013·PAYLOAD·🇺🇸 United States

Wystrzelony May 3, 2026 z Vandenberg Space Force Base

Loading…

Następne Przeloty (najbliższe 24 godziny)

TLE

ŚwieżeSource: Space-Track

Epoka: Sep 14, 2026, 15:46 UTC

1 69013U 26100AK  26257.65750067  .00004933  00000-0  23020-3 0  9995
2 69013  97.3753 153.6818 0011141  67.2034 293.0377 15.20244748 20401

Śledź CAS500-2 w czasie rzeczywistym z AllMySat

Download on the App Store